This demonstration page uses our WeatherBlox Daily Observations layout. Learn more.

Hourly Observations for February 6, 2015

Temp ( °F °C ) Dew Point ( °F °C ) Humidity (%) Winds ( mph kmh ) Pressure ( in mb ) Visibility ( mi km ) Precip ( " mm )
12:15 am 00:15 Clear 37 2.5 30 -1.3 76 76 SSW 10 17 30.06 1018 10 16.0934 0 0
12:35 am 00:35 Clear 37 2.5 30 -1.3 76 76 SSW 14 22 30.06 1018 10 16.0934 0 0
12:55 am 00:55 Clear 36 2.1 29 -1.4 78 78 SSW 8 13 30.06 1018 10 16.0934 0 0
1:15 am 01:15 Clear 37 2.5 30 -1.2 77 77 SSW 13 20 30.03 1017 10 16.0934 0 0
1:35 am 01:35 Clear 36 2.2 30 -1.2 78 78 SSW 13 20 30.06 1018 10 16.0934 0 0
1:55 am 01:55 Clear 37 2.5 30 -1 78 78 SW 13 20 30.03 1017 10 16.0934 0 0
2:15 am 02:15 Clear 37 2.6 30 -1 77 77 SW 13 20 30 1016 10 16.0934 0 0
2:35 am 02:35 Clear 36 2.3 30 -1.1 78 78 SW 10 17 30.03 1017 10 16.0934 0 0
2:55 am 02:55 Clear 37 3 30 -1 75 75 SW 9 15 30 1016 10 16.0934 0 0
3:15 am 03:15 Clear 37 2.7 30 -1 77 77 SW 7 11 30 1016 10 16.0934 0 0
3:35 am 03:35 Clear 37 3 30 -1.1 75 75 SW 12 19 30 1016 10 16.0934 0 0
3:55 am 03:55 Clear 37 2.5 30 -1.2 77 77 SW 9 15 30 1016 10 16.0934 0 0
4:15 am 04:15 Clear 37 2.5 30 -1.2 77 77 SW 8 13 30 1016 10 16.0934 0 0
4:35 am 04:35 Clear 38 3.4 30 -1.3 72 72 W 9 15 30 1016 10 16.0934 0 0
4:55 am 04:55 Clear 40 4.3 29 -1.6 66 66 W 13 20 29.97 1015 10 16.0934 0 0
5:15 am 05:15 Clear 40 4.4 28 -2 63 63 W 13 20 29.97 1015 10 16.0934 0 0
5:35 am 05:35 Clear 40 4.3 28 -2 64 64 W 12 19 29.97 1015 10 16.0934 0 0
5:55 am 05:55 Clear 38 3.5 28 -2 68 68 W 13 20 29.97 1015 10 16.0934 0 0
6:15 am 06:15 Clear 38 3.5 28 -2.1 67 67 W 12 19 29.97 1015 10 16.0934 0 0
6:35 am 06:35 Clear 38 3.5 28 -2.1 67 67 W 10 17 29.97 1015 10 16.0934 0 0
6:55 am 06:55 Clear 38 3.5 28 -2.2 67 67 W 10 17 29.97 1015 10 16.0934 0 0
7:15 am 07:15 Clear 39 4 28 -2.2 64 64 W 9 15 29.97 1015 10 16.0934 0 0
7:35 am 07:35 Clear 39 4 28 -2.3 64 64 W 10 17 29.97 1015 10 16.0934 0 0
7:55 am 07:55 Sunny 39 4 28 -2.4 63 63 W 8 13 29.97 1015 10 16.0934 0 0
8:15 am 08:15 Sunny 39 3.9 28 -2.3 64 64 W 7 11 30 1016 10 16.0934 0 0
8:35 am 08:35 Sunny 39 4.1 28 -2 65 65 W 9 15 30 1016 10 16.0934 0 0
8:55 am 08:55 Sunny 42 5.3 29 -1.8 61 61 W 9 15 30 1016 10 16.0934 0 0
9:15 am 09:15 Sunny 43 6.1 29 -1.5 59 59 W 9 15 29.97 1015 10 16.0934 0 0
9:35 am 09:35 Sunny 44 6.7 30 -1.3 57 57 W 8 13 29.97 1015 10 16.0934 0 0
9:55 am 09:55 Sunny 45 7.1 31 -0.8 58 58 W 7 11 29.97 1015 10 16.0934 0 0
10:15 am 10:15 Sunny 46 7.6 31 -0.7 56 56 W 7 11 29.97 1015 10 16.0934 0 0
10:35 am 10:35 Sunny 46 8 32 -0.1 57 57 WNW 5 7 29.97 1015 10 16.0934 0 0
10:55 am 10:55 Sunny 48 9.1 32 0.2 54 54 WNW 5 7 29.94 1014 10 16.0934 0 0
11:15 am 11:15 Sunny 50 10.2 33 0.4 51 51 W 5 7 29.97 1015 10 16.0934 0 0
11:35 am 11:35 Sunny 54 12 33 0.5 46 46 W 6 9 29.97 1015 10 16.0934 0 0
11:55 am 11:55 Sunny 55 13 33 0.8 44 44 W 9 15 29.94 1014 10 16.0934 0 0
12:15 pm 12:15 Sunny 58 14.5 32 0.1 38 38 WNW 7 11 29.91 1013 10 16.0934 0 0
12:35 pm 12:35 Sunny 60 15.3 33 0.3 36 36 NW 8 13 29.91 1013 10 16.0934 0 0
12:55 pm 12:55 Sunny 58 14.6 32 0.2 38 38 WNW 8 13 29.91 1013 10 16.0934 0 0
1:15 pm 13:15 Sunny 60 15.5 33 0.4 36 36 W 8 13 29.88 1012 10 16.0934 0 0
1:35 pm 13:35 Sunny 61 16 32 0.1 34 34 W 7 11 29.85 1011 10 16.0934 0 0
1:55 pm 13:55 Sunny 61 16.1 31 -0.3 33 33 W 9 15 29.85 1011 10 16.0934 0 0
2:15 pm 14:15 Sunny 62 16.6 32 0 33 33 WNW 6 9 29.85 1011 10 16.0934 0 0
2:35 pm 14:35 Sunny 63 17.2 33 0.8 33 33 W 5 7 29.85 1011 10 16.0934 0 0
2:55 pm 14:55 Sunny 63 17.1 34 1.3 35 35 Calm 29.85 1011 10 16.0934 0 0
3:15 pm 15:15 Sunny 63 17.1 33 0.8 33 33 Calm 29.85 1011 10 16.0934 0 0
3:35 pm 15:35 Sunny 64 17.9 34 1.2 33 33 SW 3 6 29.85 1011 10 16.0934 0 0
3:55 pm 15:55 Sunny 65 18.5 32 0.1 29 29 Calm 29.8 1009 10 16.0934 0 0
4:15 pm 16:15 Sunny 65 18.6 32 0 29 29 WSW 5 7 29.83 1010 10 16.0934 0 0
4:35 pm 16:35 Sunny 64 18 33 0.5 31 31 W 3 6 29.83 1010 10 16.0934 0 0
4:55 pm 16:55 Sunny 65 18.1 32 0 30 30 W 3 6 29.83 1010 10 16.0934 0 0
5:15 pm 17:15 Sunny 62 16.8 32 0.1 32 32 Calm 29.83 1010 10 16.0934 0 0
5:35 pm 17:35 Sunny 61 16.3 32 0 33 33 SSW 3 6 29.83 1010 10 16.0934 0 0
5:55 pm 17:55 Sunny 57 14.1 33 0.8 41 41 S 6 9 29.85 1011 10 16.0934 0 0
6:15 pm 18:15 Clear 56 13.2 33 0.4 42 42 S 6 9 29.85 1011 10 16.0934 0 0
6:35 pm 18:35 Clear 50 10.1 32 0 50 50 SSW 6 9 29.88 1012 10 16.0934 0 0
6:55 pm 18:55 Clear 49 9.3 31 -0.7 50 50 SSW 8 13 29.88 1012 10 16.0934 0 0
7:15 pm 19:15 Clear 48 8.8 30 -1 51 51 SSW 8 13 29.88 1012 10 16.0934 0 0
7:35 pm 19:35 Clear 49 9.6 29 -1.5 46 46 SSW 8 13 29.85 1011 10 16.0934 0 0
7:55 pm 19:55 Clear 50 9.8 28 -2 44 44 SSW 10 17 29.85 1011 10 16.0934 0 0
8:15 pm 20:15 Clear 47 8.2 28 -2 49 49 SSW 6 9 29.85 1011 10 16.0934 0 0
8:35 pm 20:35 Clear 46 7.8 28 -2 50 50 SSW 8 13 29.85 1011 10 16.0934 0 0
8:55 pm 20:55 Clear 47 8.3 28 -2.1 48 48 SSW 9 15 29.83 1010 10 16.0934 0 0
9:15 pm 21:15 Clear 46 7.8 28 -2.2 50 50 S 10 17 29.83 1010 10 16.0934 0 0
9:35 pm 21:35 Clear 45 7.1 29 -1.9 53 53 SSW 9 15 29.85 1011 10 16.0934 0 0
9:55 pm 21:55 Clear 45 7.2 29 -1.5 54 54 SSW 8 13 29.85 1011 10 16.0934 0 0
10:15 pm 22:15 Clear 43 6.1 30 -1.2 60 60 SSW 9 15 29.85 1011 10 16.0934 0 0
10:35 pm 22:35 Clear 43 6 31 -0.8 62 62 SSW 7 11 29.85 1011 10 16.0934 0 0
10:55 pm 22:55 Clear 42 5.8 31 -0.7 63 63 SSW 8 13 29.83 1010 10 16.0934 0 0
11:15 pm 23:15 Clear 43 5.9 31 -0.3 65 65 SSW 9 15 29.83 1010 10 16.0934 0 0
11:35 pm 23:35 Clear 45 7.2 32 0.1 61 61 SSW 9 15 29.83 1010 10 16.0934 0 0
11:55 pm 23:55 Clear 44 6.5 32 0.1 64 64 SW 10 17 29.83 1010 10 16.0934 0 0

Powered by AerisWeather